Simultaneous Nadir Overpasses (SNOs) Predictions

Prediction of SNOs between METOP-C and LANDSAT-8 Satellite Orbit:

Table of predicted SNOs for the next 14.0 days since TLE Epoch: 1/23/2021
Index Date (METOP-C) Time (METOP-C) Lat,Lon (METOP-C) SZA (METOP-C ) Date (LANDSAT-8) Time (LANDSAT-8) Lat,Lon (LANDSAT-8) SZA (LANDSAT-8 ) Distance(km) Time Diff (sec)
1 01/23/2021 18:39:02 81.07, -60.95 101.90 01/23/2021 18:39:04 81.07, -60.79 101.92 2.64 2
2 01/23/2021 19:29:40 -81.11, 107.57 77.97 01/23/2021 19:28:29 -81.11, 107.49 78.01 1.37 71
3 01/26/2021 13:22:45 -81.06,-162.02 78.82 01/26/2021 13:23:53 -81.07,-162.04 78.80 0.50 68
4 01/26/2021 14:13:23 81.10, 6.15 101.28 01/26/2021 14:13:18 81.10, 6.04 101.26 1.84 5
5 01/29/2021 08:57:07 -81.06, -95.62 79.57 01/29/2021 08:58:07 -81.07, -95.57 79.54 0.94 60
6 01/29/2021 09:47:45 81.09, 72.48 100.52 01/29/2021 09:47:32 81.10, 72.48 100.51 0.49 13
7 02/01/2021 04:31:30 -81.06, -29.23 80.36 02/01/2021 04:32:22 -81.07, -29.14 80.33 1.75 52
8 02/01/2021 05:22:08 81.09, 138.80 99.72 02/01/2021 05:21:47 81.10, 138.90 99.72 1.74 21
9 02/04/2021 00:05:53 -81.06, 37.13 81.19 02/04/2021 00:06:37 -81.07, 37.26 81.16 2.32 44



Historial Predications of SNOs between METOP-C and LANDSAT-8
